Wind_Speed
11 11 12 12 11 11 11 11 11 10 10 10 10 10 10 10 9 9 9 9 9 9 9 9 8 8 8 9 9 9 8 9 9 9 10 10 10 11 11 10 11 11 11
12 11 12 12 12 11 11 11 10 10 10 10 10 10 10 10 9 10 9 9 10 10 10 9 9 9 9 9 9 9 9 9 9 10 10 10 10 10 10 10 11 11 12
12 11 11 11 11 11 10 10 10 10 10 10 10 10 10 10 10 9 9 9 10 10 10 9 10 9 9 9 9 9 9 10 10 10 10 10 10 10 10 10 11 11 12
12 12 11 10 10 11 11 10 10 10 11 11 10 10 10 10 10 10 10 10 10 10 10 10 9 9 9 9 9 9 9 9 9 9 10 10 11 11 11 11 12 12 12
12 12 12 11 11 11 11 11 11 11 11 11 12 11 11 11 11 11 11 11 11 11 10 10 10 10 9 9 9 10 10 10 10 11 11 11 11 11 11 12 12 12 12
12 12 12 12 11 12 12 12 12 12 12 12 12 12 12 12 12 12 12 11 11 11 11 10 10 10 10 10 10 10 11 11 11 11 11 12 12 12 12 12 12 12 12
12 13 12 12 12 12 12 13 13 13 12 12 12 13 13 13 13 12 12 12 11 11 11 10 10 11 10 10 10 11 11 11 11 11 11 12 12 13 12 12 13 13 12
13 13 13 13 12 12 13 13 13 14 14 13 13 13 13 13 13 13 13 12 12 12 11 11 11 11 11 11 11 11 11 11 11 11 12 12 13 13 13 13 13 13 13
12 13 13 12 12 13 13 14 14 14 13 13 13 12 12 12 12 12 12 12 12 12 13 13 13 13 12 12 12 12 12 12 12 12 13 13 13 14 14 14 14 14 14
11 11 12 12 13 13 14 14 14 13 14 14 13 13 12 12 12 12 13 13 13 13 13 13 13 13 12 12 13 13 13 13 13 13 13 14 14 14 14 14 14 14 15
11 11 11 12 12 13 14 14 13 13 14 13 13 13 13 12 13 13 13 13 13 13 13 14 13 13 13 13 13 14 14 14 14 14 14 14 14 14 15 15 15 15 15
12 12 11 12 12 12 13 13 13 14 14 13 13 13 13 13 13 13 13 13 13 13 14 14 14 14 14 14 14 14 14 14 15 15 15 15 14 14 14 15 16 16 16
13 12 12 13 13 13 13 13 13 13 14 13 13 13 13 13 13 13 13 13 13 13 13 14 14 15 15 15 15 14 14 14 14 15 15 15 15 14 15 16 16 17 17
13 13 13 14 13 14 14 14 13 13 13 13 13 13 13 13 13 13 13 13 13 13 14 14 15 15 15 15 15 15 15 15 15 15 15 15 15 15 16 16 17 17 18
14 13 13 14 14 14 14 14 14 14 13 13 13 13 13 13 13 13 13 13 13 13 14 14 15 15 15 15 15 15 15 15 15 15 14 15 15 14 15 16 16 17 18
14 15 15 15 15 14 14 15 15 15 14 14 14 14 14 14 14 14 14 14 14 15 15 15 16 16 16 16 16 15 15 15 15 15 14 14 14 15 15 16 17 17 18
16 16 16 16 15 15 15 16 16 16 15 15 15 16 16 15 14 14 14 14 15 15 16 16 16 15 15 15 16 16 15 15 16 16 15 15 15 15 16 16 16 17 18
17 17 17 17 17 16 16 16 16 16 16 16 16 16 16 16 15 15 15 15 16 16 16 16 16 15 15 16 16 16 15 16 16 16 16 16 16 16 16 16 17 18 18
17 17 17 18 18 18 17 17 17 16 16 16 16 16 16 16 15 15 15 16 16 16 16 16 16 16 16 16 16 16 16 16 17 17 17 17 17 17 17 18 18 19 19
18 18 18 19 19 18 17 17 16 16 16 17 17 17 17 16 16 15 15 16 17 16 16 16 16 16 16 16 16 16 16 17 18 18 18 18 18 19 18 19 19 19 19
18 18 19 19 19 18 17 17 17 16 16 17 17 17 17 16 16 15 15 16 16 16 16 16 16 15 16 16 16 16 17 18 18 19 19 19 20 20 19 19 19 19 19
19 18 18 18 18 18 17 17 17 17 17 17 17 17 17 17 16 16 16 16 17 17 16 16 16 16 16 16 17 17 18 18 18 19 20 20 20 19 19 19 19 19 19
19 18 19 19 18 18 18 18 18 18 17 17 17 17 16 16 16 17 17 17 17 17 17 17 17 17 17 17 17 18 18 18 18 19 19 19 19 19 19 20 20 20 20
20 19 19 19 19 19 19 19 19 18 18 18 18 16 16 17 18 18 18 18 18 18 18 18 17 17 17 17 18 18 18 19 19 20 20 20 20 20 20 20 20 20 21
20 19 19 19 18 18 19 19 19 19 19 19 18 17 17 18 18 19 19 19 19 19 18 18 18 17 17 17 18 19 19 20 20 21 21 21 21 21 21 21 21 22 22
20 20 20 19 19 18 18 19 19 19 19 19 19 19 19 20 20 20 20 20 19 19 19 18 18 18 18 18 19 20 20 21 22 21 21 21 21 21 21 22 22 23 22
Wind_Direction
284 283 282 284 285 286 282 279 282 285 288 289 288 286 289 292 293 293 293 294 297 299 301 299 300 297 293 291 284 280 279 278 278 278 277 275 274 273 270 268 268 268 267
282 284 282 283 286 286 280 277 281 282 285 286 286 288 290 290 290 291 292 294 295 296 297 297 301 297 292 291 286 283 280 281 281 280 278 274 273 272 269 266 268 269 268
278 279 281 281 282 280 274 274 277 281 285 285 283 287 289 288 286 287 291 294 294 292 292 293 296 293 292 290 288 284 283 283 282 281 279 278 277 274 270 269 273 273 273
280 279 277 277 278 274 272 274 279 283 285 287 285 287 289 287 286 284 288 292 292 291 291 291 292 294 293 292 289 286 286 284 283 283 282 280 279 278 277 274 275 274 273
277 274 272 274 274 271 275 280 280 284 286 286 286 285 287 286 286 284 285 289 290 292 291 290 291 292 293 295 292 289 287 286 285 283 281 280 280 280 278 276 277 277 275
276 272 272 273 271 271 275 280 282 284 286 288 285 283 285 286 286 284 285 287 288 290 290 290 289 289 290 291 291 290 288 285 284 284 281 279 279 278 278 276 277 279 276
276 274 273 273 273 271 274 278 282 283 284 284 283 282 285 286 285 283 282 281 284 288 288 288 288 289 289 290 290 289 288 283 281 283 285 282 280 278 279 281 280 280 278
274 275 273 273 272 272 275 278 281 282 284 283 283 284 283 284 283 281 281 282 283 283 283 285 287 287 287 289 290 289 287 285 281 283 284 283 282 282 281 281 279 279 277
274 276 273 273 274 275 276 278 281 283 286 283 282 284 283 284 285 285 285 286 285 283 281 283 286 284 285 285 286 287 286 282 284 286 287 284 282 281 284 282 280 279 278
274 275 271 273 274 275 278 282 282 285 287 284 283 283 283 283 283 283 284 286 286 285 283 284 284 285 285 284 284 284 284 284 285 287 288 286 282 281 282 284 282 280 279
272 274 276 276 276 277 281 282 283 286 287 285 283 283 283 284 283 281 282 286 287 286 285 285 285 285 285 285 285 285 285 284 284 284 286 288 285 280 279 280 281 280 279
272 273 277 280 280 278 280 282 283 285 284 283 282 285 284 285 285 282 283 283 286 287 286 285 285 284 283 284 285 285 285 285 286 283 284 285 286 281 280 281 281 280 281
272 272 278 281 281 280 282 282 283 284 282 283 284 285 284 285 286 285 283 283 285 286 286 287 284 284 284 284 284 284 285 287 289 287 286 285 284 283 282 281 282 282 283
272 276 277 278 277 277 281 280 281 283 285 286 285 286 286 286 286 284 285 285 285 285 286 289 288 287 285 284 284 284 285 286 288 288 287 286 285 282 282 281 281 284 285
273 275 277 278 279 278 279 277 278 281 283 284 285 288 290 291 289 285 287 288 288 287 288 290 288 287 286 283 284 284 285 285 287 286 284 285 287 285 283 283 284 285 287
272 276 279 281 279 278 276 277 276 276 278 281 283 286 288 288 286 288 288 289 289 288 289 290 289 287 288 284 284 284 284 284 284 285 284 286 288 289 287 286 287 287 287
272 274 277 281 279 279 278 277 274 274 277 280 282 283 285 287 290 292 292 290 290 289 289 290 290 288 287 286 283 283 283 283 282 282 285 285 285 288 290 289 291 292 291
274 276 277 277 278 278 277 275 273 272 276 280 281 282 283 284 287 289 290 292 292 291 291 290 288 287 287 287 284 282 283 282 281 282 284 284 285 287 288 290 292 294 296
277 278 278 278 278 277 276 274 272 272 275 278 278 278 281 282 285 287 289 292 295 295 292 290 289 287 287 283 281 282 283 282 282 282 282 283 285 287 289 291 294 296 297
279 279 278 277 277 275 275 273 272 274 276 279 278 277 278 280 281 284 287 291 294 296 294 291 291 289 287 285 283 282 284 284 285 284 283 284 285 287 289 292 295 296 296
277 277 277 276 276 275 273 271 272 274 276 279 279 280 279 277 279 280 284 289 293 294 295 295 292 291 288 286 285 283 284 286 285 283 283 286 286 287 289 292 293 295 297
276 276 275 275 275 275 272 271 272 273 275 277 278 278 278 280 278 278 281 286 291 293 294 294 293 292 291 290 288 286 286 287 286 286 286 286 286 287 289 291 294 297 299
275 276 276 273 275 273 270 269 268 270 272 273 275 277 277 280 281 281 282 286 290 292 291 291 293 292 290 291 292 291 290 288 288 289 290 288 287 288 291 292 293 294 296
273 273 275 274 275 274 270 268 268 269 270 272 275 275 277 278 280 281 282 285 288 290 291 289 289 290 291 291 291 292 291 290 290 291 291 289 286 286 289 291 292 294 296
273 272 274 274 274 272 270 269 268 269 269 270 271 274 277 280 279 279 282 283 285 288 288 287 286 287 290 291 293 292 292 290 291 293 292 289 287 286 289 291 292 292 293
272 273 273 273 274 274 272 271 270 270 270 270 271 273 275 278 280 281 282 282 283 285 285 285 285 285 287 289 291 292 292 293 293 292 290 288 287 286 287 289 290 291 291
Height
5870 5870 5870 5869 5869 5869 5869 5869 5868 5868 5867 5867 5866 5866 5865 5865 5864 5863 5863 5862 5861 5860 5859 5858 5857 5857 5857 5856 5856 5855 5855 5855 5855 5855 5854 5854 5854 5854 5853 5853 5853 5853 5853
5868 5868 5868 5867 5867 5867 5867 5866 5866 5866 5865 5865 5864 5864 5863 5862 5862 5861 5861 5860 5859 5858 5857 5856 5856 5855 5855 5854 5854 5853 5853 5853 5853 5852 5852 5852 5851 5851 5851 5851 5850 5850 5851
5866 5865 5865 5865 5865 5864 5864 5864 5864 5864 5863 5863 5862 5861 5861 5860 5859 5859 5858 5858 5857 5856 5855 5855 5854 5853 5853 5852 5852 5851 5851 5851 5850 5850 5850 5849 5849 5849 5848 5848 5848 5847 5847
5863 5863 5863 5863 5862 5862 5862 5862 5861 5861 5861 5860 5860 5859 5858 5858 5857 5856 5856 5855 5855 5854 5853 5853 5852 5851 5850 5850 5850 5849 5849 5848 5848 5847 5847 5847 5847 5846 5846 5845 5845 5844 5843
5860 5860 5860 5860 5860 5860 5859 5859 5859 5859 5858 5858 5857 5857 5856 5855 5854 5854 5853 5853 5852 5851 5851 5850 5849 5849 5848 5848 5847 5847 5846 5846 5845 5845 5844 5844 5844 5843 5843 5843 5842 5841 5840
5857 5857 5857 5857 5857 5857 5857 5857 5856 5856 5855 5855 5854 5854 5853 5852 5852 5851 5850 5850 5849 5849 5848 5848 5847 5847 5846 5845 5845 5844 5844 5843 5843 5842 5841 5841 5841 5840 5840 5840 5839 5839 5838
5855 5854 5855 5855 5855 5854 5854 5854 5853 5853 5852 5852 5851 5851 5850 5849 5849 5848 5848 5847 5846 5846 5846 5845 5844 5844 5843 5843 5842 5841 5841 5840 5840 5839 5838 5838 5838 5838 5837 5837 5837 5836 5835
5852 5852 5852 5852 5851 5851 5851 5851 5850 5850 5849 5849 5848 5848 5847 5847 5846 5845 5845 5844 5844 5843 5843 5842 5842 5841 5841 5840 5839 5839 5838 5838 5837 5836 5836 5835 5835 5835 5834 5834 5833 5833 5833
5849 5849 5849 5849 5848 5848 5848 5848 5847 5846 5846 5846 5845 5845 5844 5844 5843 5843 5842 5842 5841 5841 5840 5839 5839 5838 5838 5837 5837 5836 5835 5835 5834 5833 5833 5832 5832 5832 5831 5831 5830 5830 5830
5846 5846 5846 5845 5845 5845 5845 5844 5844 5844 5843 5842 5842 5842 5841 5841 5840 5840 5839 5838 5838 5837 5837 5836 5836 5835 5835 5834 5833 5833 5832 5832 5831 5831 5830 5829 5828 5828 5828 5827 5827 5826 5826
5843 5843 5843 5843 5842 5842 5842 5841 5841 5841 5840 5839 5839 5838 5838 5837 5837 5837 5836 5836 5835 5834 5833 5833 5832 5832 5831 5831 5830 5830 5829 5829 5828 5827 5826 5826 5824 5824 5824 5823 5823 5823 5822
5840 5840 5840 5840 5840 5839 5839 5838 5838 5837 5837 5836 5836 5835 5834 5834 5833 5833 5833 5832 5832 5831 5830 5829 5829 5828 5828 5827 5827 5826 5825 5825 5824 5823 5823 5822 5820 5820 5820 5819 5819 5819 5818
5837 5837 5837 5837 5837 5836 5836 5835 5835 5834 5834 5833 5833 5832 5831 5831 5830 5830 5829 5829 5828 5828 5827 5826 5825 5824 5824 5823 5823 5822 5821 5821 5820 5820 5819 5818 5817 5816 5816 5815 5815 5814 5814
5834 5834 5834 5833 5833 5833 5833 5832 5832 5831 5831 5830 5829 5829 5828 5827 5827 5826 5826 5825 5825 5824 5823 5822 5821 5820 5820 5819 5819 5818 5818 5817 5816 5816 5815 5814 5813 5812 5812 5811 5811 5810 5809
5830 5830 5830 5830 5829 5829 5829 5829 5829 5828 5828 5827 5826 5826 5825 5824 5823 5823 5822 5822 5822 5820 5820 5818 5817 5816 5815 5815 5814 5814 5813 5813 5812 5812 5811 5810 5809 5808 5807 5807 5806 5805 5804
5827 5827 5826 5826 5826 5825 5825 5825 5825 5825 5824 5824 5823 5823 5822 5821 5820 5819 5819 5818 5817 5817 5816 5814 5813 5812 5811 5810 5810 5810 5809 5809 5808 5808 5807 5806 5805 5804 5803 5803 5802 5800 5800
5823 5823 5822 5822 5822 5821 5821 5821 5821 5821 5820 5820 5819 5819 5818 5818 5817 5816 5815 5814 5813 5812 5811 5810 5809 5808 5807 5806 5806 5805 5805 5805 5804 5803 5803 5802 5801 5800 5799 5798 5797 5796 5794
5819 5818 5818 5818 5817 5817 5817 5816 5816 5816 5816 5816 5815 5815 5814 5814 5813 5812 5811 5810 5809 5808 5807 5806 5805 5803 5803 5802 5801 5801 5801 5800 5799 5799 5798 5798 5797 5796 5795 5793 5792 5791 5789
5814 5814 5813 5813 5813 5812 5812 5812 5812 5812 5812 5811 5811 5810 5810 5809 5809 5808 5807 5806 5805 5804 5803 5802 5801 5799 5799 5798 5797 5797 5796 5796 5795 5794 5793 5793 5792 5791 5790 5788 5787 5786 5784
5809 5809 5808 5808 5808 5807 5807 5807 5807 5807 5807 5807 5806 5806 5805 5805 5805 5804 5803 5802 5801 5800 5799 5798 5796 5795 5794 5794 5793 5792 5792 5791 5790 5789 5788 5787 5786 5785 5784 5783 5782 5780 5779
5804 5804 5803 5803 5803 5802 5802 5802 5802 5802 5803 5802 5802 5801 5801 5801 5800 5800 5799 5799 5797 5796 5795 5794 5792 5791 5790 5789 5788 5787 5787 5786 5785 5784 5783 5781 5780 5779 5778 5777 5776 5774 5773
5799 5799 5798 5798 5798 5797 5797 5797 5798 5798 5798 5797 5797 5797 5796 5796 5795 5795 5795 5794 5793 5792 5791 5789 5788 5787 5786 5784 5783 5782 5781 5780 5779 5778 5777 5776 5774 5773 5772 5771 5770 5769 5767
5794 5794 5793 5793 5793 5792 5792 5792 5793 5792 5793 5792 5792 5792 5791 5791 5791 5791 5790 5790 5789 5787 5786 5785 5784 5782 5781 5780 5778 5777 5775 5774 5774 5772 5771 5770 5768 5767 5766 5765 5764 5763 5761
5788 5788 5788 5787 5787 5787 5787 5787 5787 5787 5787 5787 5787 5787 5787 5786 5786 5786 5785 5785 5783 5782 5781 5780 5779 5777 5776 5774 5773 5772 5770 5769 5768 5766 5765 5763 5762 5761 5760 5759 5758 5757 5755
5783 5782 5782 5782 5782 5782 5781 5781 5781 5781 5782 5782 5782 5782 5782 5781 5781 5781 5780 5779 5778 5777 5776 5774 5773 5772 5770 5769 5767 5766 5764 5763 5762 5760 5758 5757 5756 5755 5754 5752 5751 5750 5749
5777 5777 5777 5777 5777 5776 5776 5776 5776 5776 5776 5776 5776 5776 5776 5776 5776 5775 5774 5774 5773 5772 5770 5769 5768 5767 5765 5763 5762 5760 5758 5757 5755 5754 5752 5751 5749 5748 5747 5746 5744 5743 5742